"datetime","temp","dp","rain_mm","uv","solar","mb","wind_mph","gust_mph","windchill","rh"
"2016-04-23 00:00:00",5.0,4.4,0.0,0.0,0,1019.9,1,1,"",96
"2016-04-23 00:01:00",5.0,4.4,0.0,0.0,0,1019.9,0,2,"",96
"2016-04-23 00:02:00",5.0,4.4,0.0,0.0,0,1019.9,2,3,"",96
"2016-04-23 00:03:00",5.0,4.4,0.0,0.0,0,1019.9,3,6,"",96
"2016-04-23 00:04:00",5.0,4.4,0.0,0.0,0,1019.9,2,3,"",96
"2016-04-23 00:05:00",5.0,4.4,0.2,0.0,0,1019.9,1,2,"",96
"2016-04-23 00:06:00",4.9,4.3,0.2,0.0,0,1019.9,1,1,"",96
"2016-04-23 00:07:00",4.9,4.3,0.2,0.0,0,1019.9,1,2,"",96
"2016-04-23 00:08:00",4.9,4.3,0.2,0.0,0,1019.9,1,3,"",96
"2016-04-23 00:09:00",4.9,4.3,0.2,0.0,0,1019.9,0,1,"",96
"2016-04-23 00:10:00",4.9,4.3,0.2,0.0,0,1019.9,1,4,"",96
"2016-04-23 00:11:00",4.9,4.3,0.2,0.0,0,1019.8,2,3,"",96
"2016-04-23 00:12:00",4.9,4.3,0.2,0.0,0,1019.9,1,1,"",96
"2016-04-23 00:13:00",4.9,4.3,0.2,0.0,0,1019.9,1,2,"",96
"2016-04-23 00:14:00",4.9,4.3,0.2,0.0,0,1019.9,2,4,"",96
"2016-04-23 00:15:00",4.9,4.3,0.2,0.0,0,1019.9,1,2,"",96
"2016-04-23 00:16:00",4.9,4.3,0.2,0.0,0,1019.9,0,1,"",96
"2016-04-23 00:17:00",4.9,4.3,0.2,0.0,0,1019.9,0,2,"",96
"2016-04-23 00:18:00",4.9,4.3,0.2,0.0,0,1019.9,1,2,"",96
"2016-04-23 00:19:00",4.9,4.3,0.2,0.0,0,1019.9,1,3,"",96
"2016-04-23 00:20:00",4.9,4.3,0.2,0.0,0,1019.9,1,2,"",96
"2016-04-23 00:21:00",4.9,4.3,0.2,0.0,0,1019.9,1,3,"",96
"2016-04-23 00:22:00",4.9,4.3,0.2,0.0,0,1019.8,2,3,"",96
"2016-04-23 00:23:00",4.9,4.3,0.2,0.0,0,1019.9,0,1,"",96
"2016-04-23 00:24:00",4.9,4.3,0.2,0.0,0,1019.9,1,2,"",96
"2016-04-23 00:25:00",4.9,4.3,0.2,0.0,0,1019.9,1,2,"",96
"2016-04-23 00:26:00",4.9,4.3,0.2,0.0,0,1019.9,1,2,"",96
"2016-04-23 00:27:00",4.9,4.3,0.2,0.0,0,1019.8,2,3,"",96
"2016-04-23 00:28:00",4.8,4.2,0.2,0.0,0,1019.8,1,2,"",96
"2016-04-23 00:29:00",4.8,4.2,0.2,0.0,0,1019.8,1,3,"",96
"2016-04-23 00:30:00",4.8,4.2,0.2,0.0,0,1019.8,1,2,"",96
"2016-04-23 00:31:00",4.8,4.2,0.2,0.0,0,1019.8,1,1,"",96
"2016-04-23 00:32:00",4.8,4.2,0.2,0.0,0,1019.7,0,1,"",96
"2016-04-23 00:33:00",4.8,4.2,0.2,0.0,0,1019.7,0,1,"",96
"2016-04-23 00:34:00",4.8,4.2,0.2,0.0,0,1019.7,0,1,"",96
"2016-04-23 00:35:00",4.8,4.2,0.2,0.0,0,1019.7,0,1,"",96
"2016-04-23 00:36:00",4.8,4.2,0.2,0.0,0,1019.7,0,1,"",96
"2016-04-23 00:37:00",4.8,4.4,0.2,0.0,0,1019.7,0,1,"",97
"2016-04-23 00:38:00",4.8,4.4,0.2,0.0,0,1019.7,0,1,"",97
"2016-04-23 00:39:00",4.8,4.2,0.2,0.0,0,1019.7,0,1,"",96
"2016-04-23 00:40:00",4.8,4.4,0.2,0.0,0,1019.7,0,2,"",97
"2016-04-23 00:41:00",4.8,4.4,0.2,0.0,0,1019.6,0,1,"",97
"2016-04-23 00:42:00",4.8,4.4,0.2,0.0,0,1019.7,0,1,"",97
"2016-04-23 00:43:00",4.8,4.4,0.2,0.0,0,1019.6,1,2,"",97
"2016-04-23 00:44:00",4.8,4.4,0.2,0.0,0,1019.6,0,1,"",97
"2016-04-23 00:45:00",4.8,4.4,0.2,0.0,0,1019.6,0,1,"",97
"2016-04-23 00:46:00",4.8,4.4,0.2,0.0,0,1019.6,0,1,"",97
"2016-04-23 00:47:00",4.8,4.4,0.2,0.0,0,1019.6,0,1,"",97
"2016-04-23 00:48:00",4.8,4.4,0.2,0.0,0,1019.6,0,0,"",97
"2016-04-23 00:49:00",4.8,4.4,0.2,0.0,0,1019.6,0,0,"",97
"2016-04-23 00:50:00",4.8,4.4,0.2,0.0,0,1019.6,0,0,"",97
"2016-04-23 00:51:00",4.8,4.4,0.2,0.0,0,1019.6,0,1,"",97
"2016-04-23 00:52:00",4.8,4.4,0.2,0.0,0,1019.6,0,0,"",97
"2016-04-23 00:53:00",4.8,4.4,0.2,0.0,0,1019.6,0,1,"",97
"2016-04-23 00:54:00",4.8,4.4,0.2,0.0,0,1019.6,0,0,"",97
"2016-04-23 00:55:00",4.8,4.4,0.2,0.0,0,1019.6,0,0,"",97
"2016-04-23 00:56:00",4.8,4.4,0.2,0.0,0,1019.5,0,0,"",97
"2016-04-23 00:57:00",4.8,4.4,0.2,0.0,0,1019.6,0,2,"",97
"2016-04-23 00:58:00",4.8,4.4,0.2,0.0,0,1019.6,2,2,"",97
"2016-04-23 00:59:00",4.8,4.4,0.2,0.0,0,1019.6,0,1,"",97
"2016-04-23 01:00:00",4.8,4.4,0.2,0.0,0,1019.6,0,0,"",97
"2016-04-23 01:01:00",4.8,4.4,0.2,0.0,0,1019.6,0,0,"",97
"2016-04-23 01:02:00",4.8,4.4,0.2,0.0,0,1019.5,0,0,"",97
"2016-04-23 01:03:00",4.8,4.4,0.2,0.0,0,1019.6,0,0,"",97
"2016-04-23 01:04:00",4.8,4.4,0.2,0.0,0,1019.5,0,0,"",97
"2016-04-23 01:05:00",4.8,4.4,0.2,0.0,0,1019.6,0,0,"",97
"2016-04-23 01:06:00",4.8,4.4,0.2,0.0,0,1019.5,0,0,"",97
"2016-04-23 01:07:00",4.8,4.4,0.2,0.0,0,1019.5,0,0,"",97
"2016-04-23 01:08:00",4.8,4.4,0.2,0.0,0,1019.5,0,0,"",97
"2016-04-23 01:09:00",4.8,4.4,0.2,0.0,0,1019.5,0,0,"",97
"2016-04-23 01:10:00",4.8,4.4,0.2,0.0,0,1019.5,0,0,"",97
"2016-04-23 01:11:00",4.8,4.4,0.2,0.0,0,1019.5,0,1,"",97
"2016-04-23 01:12:00",4.8,4.4,0.2,0.0,0,1019.5,0,0,"",97
"2016-04-23 01:13:00",4.8,4.4,0.2,0.0,0,1019.5,0,0,"",97
"2016-04-23 01:14:00",4.8,4.4,0.2,0.0,0,1019.5,0,1,"",97
"2016-04-23 01:15:00",4.8,4.4,0.2,0.0,0,1019.5,0,1,"",97
"2016-04-23 01:16:00",4.8,4.4,0.2,0.0,0,1019.6,0,1,"",97
"2016-04-23 01:17:00",4.8,4.4,0.2,0.0,0,1019.6,0,1,"",97
"2016-04-23 01:18:00",4.8,4.4,0.2,0.0,0,1019.6,0,1,"",97
"2016-04-23 01:19:00",4.8,4.4,0.2,0.0,0,1019.6,1,1,"",97
"2016-04-23 01:20:00",4.8,4.4,0.2,0.0,0,1019.6,0,1,"",97
"2016-04-23 01:21:00",4.8,4.4,0.2,0.0,0,1019.5,0,0,"",97
"2016-04-23 01:22:00",4.8,4.4,0.2,0.0,0,1019.5,0,0,"",97
"2016-04-23 01:23:00",4.8,4.4,0.2,0.0,0,1019.5,1,2,"",97
"2016-04-23 01:24:00",4.8,4.4,0.2,0.0,0,1019.5,1,1,"",97
"2016-04-23 01:25:00",4.8,4.4,0.2,0.0,0,1019.5,0,1,"",97
"2016-04-23 01:26:00",4.8,4.4,0.2,0.0,0,1019.5,0,1,"",97
"2016-04-23 01:27:00",4.8,4.4,0.2,0.0,0,1019.5,0,0,"",97
"2016-04-23 01:28:00",4.8,4.4,0.2,0.0,0,1019.5,0,0,"",97
"2016-04-23 01:29:00",4.8,4.4,0.2,0.0,0,1019.5,0,0,"",97
"2016-04-23 01:30:00",4.9,4.5,0.2,0.0,0,1019.5,0,1,"",97
"2016-04-23 01:31:00",4.9,4.5,0.2,0.0,0,1019.5,0,1,"",97
"2016-04-23 01:32:00",4.8,4.4,0.2,0.0,0,1019.5,0,1,"",97
"2016-04-23 01:33:00",4.8,4.4,0.2,0.0,0,1019.5,1,2,"",97
"2016-04-23 01:34:00",4.8,4.4,0.2,0.0,0,1019.5,0,1,"",97
"2016-04-23 01:35:00",4.9,4.5,0.2,0.0,0,1019.5,0,1,"",97
"2016-04-23 01:36:00",4.9,4.5,0.2,0.0,0,1019.5,0,1,"",97
"2016-04-23 01:37:00",4.9,4.5,0.2,0.0,0,1019.5,0,1,"",97
"2016-04-23 01:38:00",4.9,4.5,0.2,0.0,0,1019.5,0,0,"",97
"2016-04-23 01:39:00",4.9,4.5,0.2,0.0,0,1019.5,0,1,"",97
"2016-04-23 01:40:00",4.9,4.6,0.2,0.0,0,1019.5,0,1,"",98
"2016-04-23 01:41:00",4.9,4.6,0.2,0.0,0,1019.5,0,1,"",98
"2016-04-23 01:42:00",4.9,4.6,0.2,0.0,0,1019.5,1,1,"",98
"2016-04-23 01:43:00",4.9,4.6,0.2,0.0,0,1019.5,2,3,"",98
"2016-04-23 01:44:00",4.9,4.6,0.2,0.0,0,1019.5,2,2,"",98
"2016-04-23 01:45:00",4.9,4.6,0.2,0.0,0,1019.5,1,1,"",98
"2016-04-23 01:46:00",4.9,4.6,0.2,0.0,0,1019.5,1,1,"",98
"2016-04-23 01:47:00",4.9,4.6,0.2,0.0,0,1019.5,1,1,"",98
"2016-04-23 01:48:00",4.9,4.6,0.2,0.0,0,1019.5,1,2,"",98
"2016-04-23 01:49:00",5.0,4.7,0.2,0.0,0,1019.5,1,2,"",98
"2016-04-23 01:50:00",4.9,4.6,0.2,0.0,0,1019.5,2,4,"",98
"2016-04-23 01:51:00",4.9,4.6,0.2,0.0,0,1019.4,1,2,"",98
"2016-04-23 01:52:00",4.9,4.6,0.2,0.0,0,1019.4,1,2,"",98
"2016-04-23 01:53:00",5.0,4.7,0.2,0.0,0,1019.4,2,3,"",98
"2016-04-23 01:54:00",5.0,4.7,0.2,0.0,0,1019.4,1,2,"",98
"2016-04-23 01:55:00",5.0,4.7,0.2,0.0,0,1019.4,1,1,"",98
"2016-04-23 01:56:00",5.0,4.7,0.2,0.0,0,1019.4,1,2,"",98
"2016-04-23 01:57:00",5.0,4.7,0.2,0.0,0,1019.4,3,4,"",98
"2016-04-23 01:58:00",5.0,4.7,0.2,0.0,0,1019.4,1,2,"",98
"2016-04-23 01:59:00",4.9,4.6,0.2,0.0,0,1019.4,2,3,"",98
"2016-04-23 02:00:00",5.0,4.7,0.2,0.0,0,1019.4,2,3,"",98
"2016-04-23 02:01:00",4.9,4.6,0.2,0.0,0,1019.4,1,3,"",98
"2016-04-23 02:02:00",4.9,4.6,0.2,0.0,0,1019.4,1,2,"",98
"2016-04-23 02:03:00",4.9,4.6,0.2,0.0,0,1019.4,0,1,"",98
"2016-04-23 02:04:00",5.0,4.7,0.2,0.0,0,1019.3,1,3,"",98
"2016-04-23 02:05:00",4.9,4.6,0.2,0.0,0,1019.3,1,2,"",98
"2016-04-23 02:06:00",4.9,4.6,0.2,0.0,0,1019.4,2,3,"",98
"2016-04-23 02:07:00",4.9,4.6,0.2,0.0,0,1019.3,1,2,"",98
"2016-04-23 02:08:00",4.9,4.5,0.2,0.0,0,1019.3,3,5,"",97
"2016-04-23 02:09:00",4.9,4.5,0.2,0.0,0,1019.3,1,2,"",97
"2016-04-23 02:10:00",4.9,4.5,0.2,0.0,0,1019.3,1,2,"",97
"2016-04-23 02:11:00",4.9,4.5,0.2,0.0,0,1019.3,0,1,"",97
"2016-04-23 02:12:00",4.8,4.4,0.2,0.0,0,1019.3,1,1,"",97
"2016-04-23 02:13:00",4.8,4.4,0.2,0.0,0,1019.3,1,2,"",97
"2016-04-23 02:14:00",4.8,4.4,0.2,0.0,0,1019.3,1,1,"",97
"2016-04-23 02:15:00",4.8,4.4,0.2,0.0,0,1019.3,1,2,"",97
"2016-04-23 02:16:00",4.8,4.4,0.2,0.0,0,1019.2,2,3,"",97
"2016-04-23 02:17:00",4.8,4.4,0.2,0.0,0,1019.2,1,3,"",97
"2016-04-23 02:18:00",4.8,4.4,0.2,0.0,0,1019.2,1,2,"",97
"2016-04-23 02:19:00",4.8,4.4,0.2,0.0,0,1019.2,2,4,"",97
"2016-04-23 02:20:00",4.8,4.4,0.2,0.0,0,1019.2,1,2,"",97
"2016-04-23 02:21:00",4.7,4.3,0.2,0.0,0,1019.2,1,2,"",97
"2016-04-23 02:22:00",4.7,4.3,0.2,0.0,0,1019.2,1,2,"",97
"2016-04-23 02:23:00",4.7,4.3,0.2,0.0,0,1019.2,1,2,"",97
"2016-04-23 02:24:00",4.7,4.3,0.2,0.0,0,1019.1,2,3,"",97
"2016-04-23 02:25:00",4.7,4.3,0.2,0.0,0,1019.2,2,3,"",97
"2016-04-23 02:26:00",4.7,4.3,0.2,0.0,0,1019.1,0,1,"",97
"2016-04-23 02:27:00",4.7,4.3,0.2,0.0,0,1019.1,1,2,"",97
"2016-04-23 02:28:00",4.7,4.3,0.2,0.0,0,1019.1,1,2,"",97
"2016-04-23 02:29:00",4.6,4.2,0.2,0.0,0,1019.1,1,1,"",97
"2016-04-23 02:30:00",4.6,4.2,0.2,0.0,0,1019.1,1,2,"",97
"2016-04-23 02:31:00",4.6,4.2,0.2,0.0,0,1019.1,1,2,"",97
"2016-04-23 02:32:00",4.6,4.2,0.2,0.0,0,1019.1,1,1,"",97
"2016-04-23 02:33:00",4.6,4.2,0.2,0.0,0,1019.1,1,1,"",97
"2016-04-23 02:34:00",4.6,4.2,0.2,0.0,0,1019.1,1,2,"",97
"2016-04-23 02:35:00",4.6,4.2,0.2,0.0,0,1019.1,0,1,"",97
"2016-04-23 02:36:00",4.6,4.2,0.2,0.0,0,1019.0,0,0,"",97
"2016-04-23 02:37:00",4.5,4.1,0.2,0.0,0,1019.1,1,2,"",97
"2016-04-23 02:38:00",4.5,4.1,0.2,0.0,0,1019.1,1,1,"",97
"2016-04-23 02:39:00",4.5,4.1,0.2,0.0,0,1019.0,1,2,"",97
"2016-04-23 02:40:00",4.5,4.1,0.2,0.0,0,1019.1,0,2,"",97
"2016-04-23 02:41:00",4.5,4.1,0.2,0.0,0,1019.1,1,2,"",97
"2016-04-23 02:42:00",4.5,4.1,0.2,0.0,0,1019.0,0,1,"",97
"2016-04-23 02:43:00",4.4,4.0,0.2,0.0,0,1019.1,0,0,"",97
"2016-04-23 02:44:00",4.4,4.0,0.2,0.0,0,1019.1,1,2,"",97
"2016-04-23 02:45:00",4.4,4.0,0.2,0.0,0,1019.1,1,3,"",97
"2016-04-23 02:46:00",4.4,4.1,0.2,0.0,0,1019.1,1,2,"",98
"2016-04-23 02:47:00",4.4,4.1,0.2,0.0,0,1019.1,0,1,"",98
"2016-04-23 02:48:00",4.4,4.1,0.2,0.0,0,1019.0,0,1,"",98
"2016-04-23 02:49:00",4.4,4.1,0.2,0.0,0,1019.0,1,3,"",98
"2016-04-23 02:50:00",4.4,4.1,0.2,0.0,0,1019.0,1,1,"",98
"2016-04-23 02:51:00",4.4,4.1,0.2,0.0,0,1019.0,1,1,"",98
"2016-04-23 02:52:00",4.4,4.1,0.2,0.0,0,1019.0,0,1,"",98
"2016-04-23 02:53:00",4.4,4.1,0.2,0.0,0,1019.0,0,0,"",98
"2016-04-23 02:54:00",4.4,4.1,0.2,0.0,0,1019.0,0,1,"",98
"2016-04-23 02:55:00",4.4,4.1,0.2,0.0,0,1018.9,0,1,"",98
"2016-04-23 02:56:00",4.4,4.1,0.2,0.0,0,1018.9,1,2,"",98
"2016-04-23 02:57:00",4.4,4.1,0.2,0.0,0,1018.9,1,2,"",98
"2016-04-23 02:58:00",4.4,4.1,0.2,0.0,0,1018.8,0,1,"",98
"2016-04-23 02:59:00",4.4,4.1,0.2,0.0,0,1018.8,1,2,"",98
"2016-04-23 03:00:00",4.4,4.1,0.2,0.0,0,1018.9,0,1,"",98
"2016-04-23 03:01:00",4.4,4.1,0.2,0.0,0,1018.8,0,1,"",98
"2016-04-23 03:02:00",4.4,4.1,0.2,0.0,0,1018.8,0,1,"",98
"2016-04-23 03:03:00",4.4,4.1,0.2,0.0,0,1018.8,0,0,"",98
"2016-04-23 03:04:00",4.3,4.0,0.2,0.0,0,1018.8,1,2,"",98
"2016-04-23 03:05:00",4.3,4.0,0.2,0.0,0,1018.8,0,1,"",98
"2016-04-23 03:06:00",4.3,4.0,0.2,0.0,0,1018.9,0,1,"",98
"2016-04-23 03:07:00",4.3,4.0,0.2,0.0,0,1018.8,0,1,"",98
"2016-04-23 03:08:00",4.3,4.0,0.2,0.0,0,1018.8,1,1,"",98
"2016-04-23 03:09:00",4.4,4.1,0.2,0.0,0,1018.8,1,2,"",98
"2016-04-23 03:10:00",4.3,4.0,0.2,0.0,0,1018.7,0,1,"",98
"2016-04-23 03:11:00",4.3,4.0,0.2,0.0,0,1018.8,0,1,"",98
"2016-04-23 03:12:00",4.3,4.0,0.2,0.0,0,1018.8,0,1,"",98
"2016-04-23 03:13:00",4.4,4.1,0.2,0.0,0,1018.8,1,1,"",98
"2016-04-23 03:14:00",4.4,4.1,0.2,0.0,0,1018.8,0,1,"",98
"2016-04-23 03:15:00",4.3,4.0,0.2,0.0,0,1018.8,0,1,"",98
"2016-04-23 03:16:00",4.3,4.0,0.2,0.0,0,1018.8,0,1,"",98
"2016-04-23 03:17:00",4.3,4.0,0.2,0.0,0,1018.8,1,1,"",98
"2016-04-23 03:18:00",4.3,4.0,0.2,0.0,0,1018.8,1,1,"",98
"2016-04-23 03:19:00",4.3,4.0,0.2,0.0,0,1018.8,1,2,"",98
"2016-04-23 03:20:00",4.3,4.0,0.2,0.0,0,1018.8,0,1,"",98
"2016-04-23 03:21:00",4.3,4.0,0.2,0.0,0,1018.8,0,1,"",98
"2016-04-23 03:22:00",4.3,4.0,0.2,0.0,0,1018.8,0,1,"",98
"2016-04-23 03:23:00",4.3,4.0,0.2,0.0,0,1018.9,0,1,"",98
"2016-04-23 03:24:00",4.3,4.0,0.2,0.0,0,1018.9,0,1,"",98
"2016-04-23 03:25:00",4.3,3.9,0.2,0.0,0,1018.8,0,1,"",97
"2016-04-23 03:26:00",4.2,3.8,0.2,0.0,0,1018.9,2,2,"",97
"2016-04-23 03:27:00",4.2,3.8,0.2,0.0,0,1018.8,1,2,"",97
"2016-04-23 03:28:00",4.2,3.8,0.2,0.0,0,1018.8,1,2,"",97
"2016-04-23 03:29:00",4.2,3.8,0.2,0.0,0,1018.9,1,2,"",97
"2016-04-23 03:30:00",4.2,3.9,0.2,0.0,0,1018.8,1,1,"",98
"2016-04-23 03:31:00",4.2,3.9,0.2,0.0,0,1018.8,1,2,"",98
"2016-04-23 03:32:00",4.2,3.9,0.2,0.0,0,1018.8,0,0,"",98
"2016-04-23 03:33:00",4.2,3.9,0.2,0.0,0,1018.8,0,2,"",98
"2016-04-23 03:34:00",4.2,3.9,0.2,0.0,0,1018.8,1,2,"",98
"2016-04-23 03:35:00",4.2,3.9,0.2,0.0,0,1018.8,0,1,"",98
"2016-04-23 03:36:00",4.2,3.9,0.2,0.0,0,1018.9,1,2,"",98
"2016-04-23 03:37:00",4.2,3.9,0.2,0.0,0,1018.9,1,2,"",98
"2016-04-23 03:38:00",4.1,3.8,0.2,0.0,0,1018.9,0,1,"",98
"2016-04-23 03:39:00",4.1,3.8,0.2,0.0,0,1018.9,1,2,"",98
"2016-04-23 03:40:00",4.1,3.8,0.2,0.0,0,1018.9,0,2,"",98
"2016-04-23 03:41:00",4.1,3.8,0.2,0.0,0,1018.9,1,2,"",98
"2016-04-23 03:42:00",4.1,3.8,0.2,0.0,0,1018.9,0,1,"",98
"2016-04-23 03:43:00",4.1,3.8,0.2,0.0,0,1018.9,0,1,"",98
"2016-04-23 03:44:00",4.1,3.8,0.2,0.0,0,1019.0,0,2,"",98
"2016-04-23 03:45:00",4.1,3.8,0.2,0.0,0,1018.9,0,2,"",98
"2016-04-23 03:46:00",4.1,3.8,0.2,0.0,0,1018.9,0,1,"",98
"2016-04-23 03:47:00",4.1,3.8,0.2,0.0,0,1018.9,1,2,"",98
"2016-04-23 03:48:00",4.1,3.8,0.2,0.0,0,1018.9,1,2,"",98
"2016-04-23 03:49:00",4.0,3.6,0.2,0.0,0,1018.9,1,3,"",97
"2016-04-23 03:50:00",4.0,3.7,0.2,0.0,0,1018.9,1,2,"",98
"2016-04-23 03:51:00",3.9,3.6,0.2,0.0,0,1018.9,0,1,"",98
"2016-04-23 03:52:00",3.9,3.5,0.2,0.0,0,1018.9,0,1,"",97
"2016-04-23 03:53:00",3.9,3.5,0.2,0.0,0,1018.9,1,1,"",97
"2016-04-23 03:54:00",3.8,3.4,0.2,0.0,0,1018.9,1,1,"",97
"2016-04-23 03:55:00",3.8,3.4,0.2,0.0,0,1018.9,0,1,"",97
"2016-04-23 03:56:00",3.8,3.4,0.2,0.0,0,1018.9,1,3,"",97
"2016-04-23 03:57:00",3.8,3.4,0.2,0.0,0,1018.9,1,2,"",97
"2016-04-23 03:58:00",3.8,3.5,0.2,0.0,0,1019.0,0,1,"",98
"2016-04-23 03:59:00",3.8,3.5,0.2,0.0,0,1019.0,0,2,"",98
"2016-04-23 04:00:00",3.8,3.5,0.2,0.0,0,1019.0,1,1,"",98
"2016-04-23 04:01:00",3.8,3.5,0.2,0.0,0,1019.0,1,3,"",98
"2016-04-23 04:02:00",3.8,3.5,0.2,0.0,0,1019.0,2,3,"",98
"2016-04-23 04:03:00",3.8,3.5,0.2,0.0,0,1019.0,1,2,"",98
"2016-04-23 04:04:00",3.8,3.5,0.2,0.0,0,1019.0,1,3,"",98
"2016-04-23 04:05:00",3.8,3.5,0.2,0.0,0,1019.0,1,2,"",98
"2016-04-23 04:06:00",3.7,3.4,0.2,0.0,0,1019.0,0,1,"",98
"2016-04-23 04:07:00",3.7,3.4,0.2,0.0,0,1019.0,1,1,"",98
"2016-04-23 04:08:00",3.7,3.3,0.2,0.0,0,1019.0,0,1,"",97
"2016-04-23 04:09:00",3.7,3.3,0.2,0.0,0,1018.9,0,1,"",97
"2016-04-23 04:10:00",3.7,3.3,0.2,0.0,0,1019.0,1,1,"",97
"2016-04-23 04:11:00",3.7,3.3,0.2,0.0,0,1018.9,1,3,"",97
"2016-04-23 04:12:00",3.7,3.3,0.2,0.0,0,1018.9,2,6,"",97
"2016-04-23 04:13:00",3.7,3.3,0.2,0.0,0,1018.9,1,4,"",97
"2016-04-23 04:14:00",3.7,3.3,0.2,0.0,0,1018.9,1,1,"",97
"2016-04-23 04:15:00",3.6,3.2,0.2,0.0,0,1018.9,1,2,"",97
"2016-04-23 04:16:00",3.6,3.2,0.2,0.0,0,1018.9,0,1,"",97
"2016-04-23 04:17:00",3.6,3.2,0.2,0.0,0,1018.9,0,1,"",97
"2016-04-23 04:18:00",3.6,3.2,0.2,0.0,0,1018.9,0,1,"",97
"2016-04-23 04:19:00",3.6,3.2,0.2,0.0,0,1018.9,1,2,"",97
"2016-04-23 04:20:00",3.6,3.2,0.2,0.0,0,1018.9,2,3,"",97
"2016-04-23 04:21:00",3.6,3.2,0.2,0.0,0,1019.0,1,2,"",97
"2016-04-23 04:22:00",3.6,3.2,0.2,0.0,0,1019.0,1,2,"",97
"2016-04-23 04:23:00",3.6,3.2,0.2,0.0,0,1018.9,0,2,"",97
"2016-04-23 04:24:00",3.6,3.2,0.2,0.0,0,1018.9,0,1,"",97
"2016-04-23 04:25:00",3.6,3.3,0.2,0.0,0,1018.9,2,3,"",98
"2016-04-23 04:26:00",3.6,3.2,0.2,0.0,0,1018.9,1,3,"",97
"2016-04-23 04:27:00",3.6,3.3,0.2,0.0,0,1018.9,0,1,"",98
"2016-04-23 04:28:00",3.5,3.2,0.2,0.0,0,1018.9,1,2,"",98
"2016-04-23 04:29:00",3.5,3.2,0.2,0.0,0,1018.9,1,2,"",98
"2016-04-23 04:30:00",3.5,3.2,0.2,0.0,0,1018.9,1,2,"",98
"2016-04-23 04:31:00",3.5,3.2,0.2,0.0,0,1018.9,0,1,"",98
"2016-04-23 04:32:00",3.4,3.1,0.2,0.0,0,1018.9,0,1,"",98
"2016-04-23 04:33:00",3.4,3.1,0.2,0.0,0,1018.9,0,1,"",98
"2016-04-23 04:34:00",3.4,3.1,0.2,0.0,0,1019.0,0,1,"",98
"2016-04-23 04:35:00",3.4,3.1,0.2,0.0,0,1018.9,0,1,"",98
"2016-04-23 04:36:00",3.4,3.1,0.2,0.0,0,1018.9,1,2,"",98
"2016-04-23 04:37:00",3.4,3.1,0.2,0.0,0,1018.9,1,2,"",98
"2016-04-23 04:38:00",3.4,3.1,0.2,0.0,0,1019.0,1,1,"",98
"2016-04-23 04:39:00",3.3,3.0,0.2,0.0,0,1018.9,1,2,"",98
"2016-04-23 04:40:00",3.3,2.9,0.2,0.0,0,1018.9,1,2,"",97
"2016-04-23 04:41:00",3.3,2.9,0.2,0.0,0,1018.9,1,2,"",97
"2016-04-23 04:42:00",3.3,2.9,0.2,0.0,0,1019.0,1,2,"",97
"2016-04-23 04:43:00",3.3,2.9,0.2,0.0,0,1019.0,1,2,"",97
"2016-04-23 04:44:00",3.2,2.8,0.2,0.0,0,1019.0,1,2,"",97
"2016-04-23 04:45:00",3.3,2.9,0.2,0.0,0,1019.0,1,1,"",97
"2016-04-23 04:46:00",3.3,2.9,0.2,0.0,0,1019.0,1,2,"",97
"2016-04-23 04:47:00",3.2,2.8,0.2,0.0,0,1019.0,0,1,"",97
"2016-04-23 04:48:00",3.2,2.8,0.2,0.0,0,1019.0,1,2,"",97
"2016-04-23 04:49:00",3.2,2.8,0.2,0.0,0,1019.0,1,2,"",97
"2016-04-23 04:50:00",3.2,2.8,0.2,0.0,0,1019.0,0,1,"",97
"2016-04-23 04:51:00",3.2,2.9,0.2,0.0,0,1019.1,1,2,"",98
"2016-04-23 04:52:00",3.2,2.9,0.2,0.0,0,1019.1,1,2,"",98
"2016-04-23 04:53:00",3.2,2.9,0.2,0.0,0,1019.1,1,2,"",98
"2016-04-23 04:54:00",3.1,2.8,0.2,0.0,0,1019.1,1,2,"",98
"2016-04-23 04:55:00",3.2,2.9,0.2,0.0,0,1019.1,1,1,"",98
"2016-04-23 04:56:00",3.1,2.8,0.2,0.0,0,1019.1,0,1,"",98
"2016-04-23 04:57:00",3.2,2.9,0.2,0.0,0,1019.0,1,2,"",98
"2016-04-23 04:58:00",3.1,2.8,0.2,0.0,0,1019.1,1,2,"",98
"2016-04-23 04:59:00",3.1,2.8,0.2,0.0,0,1019.1,0,1,"",98
"2016-04-23 05:00:00",3.1,2.8,0.2,0.0,0,1019.1,0,2,"",98
"2016-04-23 05:01:00",3.1,2.8,0.2,0.0,0,1019.1,1,2,"",98
"2016-04-23 05:02:00",3.1,2.8,0.2,0.0,0,1019.1,0,1,"",98
"2016-04-23 05:03:00",3.1,2.8,0.2,0.0,0,1019.0,1,1,"",98
"2016-04-23 05:04:00",3.1,2.7,0.4,0.0,0,1019.1,0,1,"",97
"2016-04-23 05:05:00",3.0,2.6,0.4,0.0,0,1019.1,1,1,"",97
"2016-04-23 05:06:00",3.0,2.6,0.4,0.0,0,1019.0,0,1,"",97
"2016-04-23 05:07:00",3.0,2.6,0.4,0.0,0,1019.1,1,2,"",97
"2016-04-23 05:08:00",3.0,2.6,0.4,0.0,0,1019.1,0,1,"",97
"2016-04-23 05:09:00",3.0,2.6,0.4,0.0,0,1019.1,0,1,"",97
"2016-04-23 05:10:00",2.9,2.5,0.4,0.0,0,1019.1,1,1,"",97
"2016-04-23 05:11:00",2.9,2.5,0.4,0.0,0,1019.2,0,1,"",97
"2016-04-23 05:12:00",2.9,2.5,0.4,0.0,0,1019.1,0,1,"",97
"2016-04-23 05:13:00",2.9,2.5,0.4,0.0,0,1019.1,0,1,"",97
"2016-04-23 05:14:00",2.9,2.5,0.4,0.0,0,1019.1,1,1,"",97
"2016-04-23 05:15:00",2.9,2.5,0.4,0.0,0,1019.1,1,2,"",97
"2016-04-23 05:16:00",2.9,2.5,0.4,0.0,0,1019.2,1,5,"",97
"2016-04-23 05:17:00",2.9,2.6,0.4,0.0,0,1019.2,1,3,"",98
"2016-04-23 05:18:00",2.9,2.6,0.4,0.0,0,1019.1,0,1,"",98
"2016-04-23 05:19:00",2.9,2.6,0.4,0.0,0,1019.1,1,2,"",98
"2016-04-23 05:20:00",2.9,2.6,0.4,0.0,0,1019.1,0,1,"",98
"2016-04-23 05:21:00",2.9,2.6,0.4,0.0,0,1019.2,0,1,"",98
"2016-04-23 05:22:00",2.9,2.6,0.4,0.0,0,1019.1,1,1,"",98
"2016-04-23 05:23:00",2.9,2.6,0.4,0.0,0,1019.2,0,1,"",98
"2016-04-23 05:24:00",2.8,2.5,0.4,0.0,0,1019.2,0,1,"",98
"2016-04-23 05:25:00",2.8,2.5,0.4,0.0,0,1019.2,0,0,"",98
"2016-04-23 05:26:00",2.8,2.5,0.4,0.0,0,1019.2,0,0,"",98
"2016-04-23 05:27:00",2.8,2.5,0.4,0.0,0,1019.2,0,1,"",98
"2016-04-23 05:28:00",2.8,2.5,0.4,0.0,0,1019.2,0,1,"",98
"2016-04-23 05:29:00",2.8,2.4,0.4,0.0,0,1019.2,1,2,"",97
"2016-04-23 05:30:00",2.7,2.3,0.4,0.0,0,1019.2,0,1,"",97
"2016-04-23 05:31:00",2.7,2.3,0.4,0.0,0,1019.2,0,1,"",97
"2016-04-23 05:32:00",2.7,2.3,0.4,0.0,0,1019.2,0,0,"",97
"2016-04-23 05:33:00",2.7,2.3,0.4,0.0,0,1019.2,0,1,"",97
"2016-04-23 05:34:00",2.7,2.3,0.4,0.0,0,1019.3,0,1,"",97
"2016-04-23 05:35:00",2.7,2.3,0.4,0.0,0,1019.3,0,1,"",97
"2016-04-23 05:36:00",2.7,2.3,0.4,0.0,0,1019.3,0,1,"",97
"2016-04-23 05:37:00",2.7,2.3,0.4,0.0,0,1019.3,0,1,"",97
"2016-04-23 05:38:00",2.7,2.4,0.4,0.0,0,1019.3,1,1,"",98
"2016-04-23 05:39:00",2.7,2.4,0.4,0.0,0,1019.3,0,1,"",98
"2016-04-23 05:40:00",2.7,2.4,0.4,0.0,0,1019.3,1,1,"",98
"2016-04-23 05:41:00",2.7,2.4,0.4,0.0,0,1019.3,0,1,"",98
"2016-04-23 05:42:00",2.7,2.4,0.4,0.0,0,1019.3,1,1,"",98
"2016-04-23 05:43:00",2.7,2.4,0.4,0.0,0,1019.4,0,1,"",98
"2016-04-23 05:44:00",2.7,2.4,0.4,0.0,0,1019.3,0,1,"",98
"2016-04-23 05:45:00",2.7,2.4,0.4,0.0,0,1019.4,0,0,"",98
"2016-04-23 05:46:00",2.7,2.4,0.4,0.0,0,1019.3,0,1,"",98
"2016-04-23 05:47:00",2.7,2.4,0.4,0.0,0,1019.4,1,1,"",98
"2016-04-23 05:48:00",2.7,2.4,0.4,0.0,0,1019.4,1,2,"",98
"2016-04-23 05:49:00",2.7,2.4,0.4,0.0,0,1019.4,0,1,"",98
"2016-04-23 05:50:00",2.7,2.4,0.4,0.0,0,1019.3,1,2,"",98
"2016-04-23 05:51:00",2.7,2.4,0.4,0.0,0,1019.4,2,2,"",98
"2016-04-23 05:52:00",2.7,2.4,0.4,0.0,0,1019.3,1,2,"",98
"2016-04-23 05:53:00",2.7,2.4,0.4,0.0,0,1019.3,1,1,"",98
"2016-04-23 05:54:00",2.7,2.4,0.4,0.0,0,1019.3,1,2,"",98
"2016-04-23 05:55:00",2.7,2.4,0.4,0.0,0,1019.3,1,2,"",98
"2016-04-23 05:56:00",2.8,2.5,0.4,0.0,0,1019.3,0,1,"",98
"2016-04-23 05:57:00",2.7,2.4,0.4,0.0,0,1019.3,1,1,"",98
"2016-04-23 05:58:00",2.7,2.4,0.4,0.0,0,1019.4,1,1,"",98
"2016-04-23 05:59:00",2.7,2.4,0.4,0.0,0,1019.3,0,1,"",98
"2016-04-23 06:00:00",2.7,2.4,0.4,0.0,5,1019.3,1,2,"",98
"2016-04-23 06:01:00",2.7,2.4,0.4,0.0,5,1019.3,0,2,"",98
"2016-04-23 06:02:00",2.7,2.4,0.4,0.0,5,1019.3,1,2,"",98
"2016-04-23 06:03:00",2.7,2.4,0.4,0.0,5,1019.3,1,1,"",98
"2016-04-23 06:04:00",2.6,2.3,0.4,0.0,7,1019.3,0,1,"",98
"2016-04-23 06:05:00",2.7,2.4,0.4,0.0,7,1019.3,1,2,"",98
"2016-04-23 06:06:00",2.7,2.4,0.4,0.0,7,1019.3,1,2,"",98
"2016-04-23 06:07:00",2.7,2.4,0.4,0.0,9,1019.3,1,1,"",98
"2016-04-23 06:08:00",2.7,2.4,0.4,0.0,9,1019.3,1,2,"",98
"2016-04-23 06:09:00",2.7,2.4,0.4,0.0,9,1019.4,1,2,"",98
"2016-04-23 06:10:00",2.7,2.4,0.4,0.0,11,1019.3,1,1,"",98
"2016-04-23 06:11:00",2.7,2.4,0.4,0.0,11,1019.3,1,1,"",98
"2016-04-23 06:12:00",2.6,2.3,0.4,0.0,12,1019.4,1,1,"",98
"2016-04-23 06:13:00",2.6,2.3,0.4,0.0,12,1019.4,1,1,"",98
"2016-04-23 06:14:00",2.6,2.3,0.4,0.0,12,1019.3,0,1,"",98
"2016-04-23 06:15:00",2.6,2.3,0.4,0.0,14,1019.4,1,1,"",98
"2016-04-23 06:16:00",2.6,2.3,0.4,0.0,14,1019.3,0,1,"",98
"2016-04-23 06:17:00",2.6,2.3,0.4,0.0,16,1019.3,0,1,"",98
"2016-04-23 06:18:00",2.6,2.3,0.4,0.0,16,1019.3,0,1,"",98
"2016-04-23 06:19:00",2.6,2.3,0.4,0.0,16,1019.4,0,1,"",98
"2016-04-23 06:20:00",2.6,2.3,0.4,0.0,16,1019.3,0,1,"",98
"2016-04-23 06:21:00",2.6,2.3,0.4,0.0,18,1019.4,1,2,"",98
"2016-04-23 06:22:00",2.6,2.3,0.4,0.0,19,1019.4,0,1,"",98
"2016-04-23 06:23:00",2.6,2.3,0.4,0.0,19,1019.4,0,1,"",98
"2016-04-23 06:24:00",2.6,2.3,0.4,0.0,19,1019.4,0,1,"",98
"2016-04-23 06:25:00",2.6,2.3,0.4,0.0,21,1019.4,1,2,"",98
"2016-04-23 06:26:00",2.6,2.3,0.4,0.0,21,1019.5,1,2,"",98
"2016-04-23 06:27:00",2.6,2.3,0.4,0.0,21,1019.5,1,2,"",98
"2016-04-23 06:28:00",2.6,2.3,0.4,0.0,21,1019.4,1,1,"",98
"2016-04-23 06:29:00",2.6,2.3,0.4,0.0,23,1019.4,0,1,"",98
"2016-04-23 06:30:00",2.6,2.3,0.4,0.0,23,1019.5,1,2,"",98
"2016-04-23 06:31:00",2.6,2.3,0.4,0.0,23,1019.4,1,3,"",98
"2016-04-23 06:32:00",2.5,2.2,0.4,0.0,23,1019.4,0,1,"",98
"2016-04-23 06:33:00",2.6,2.3,0.4,0.0,23,1019.4,0,0,"",98
"2016-04-23 06:34:00",2.5,2.2,0.4,0.0,23,1019.5,1,1,"",98
"2016-04-23 06:35:00",2.6,2.3,0.4,0.0,23,1019.4,1,2,"",98
"2016-04-23 06:36:00",2.6,2.3,0.4,0.0,23,1019.5,1,2,"",98
"2016-04-23 06:37:00",2.6,2.3,0.4,0.0,23,1019.4,1,1,"",98
"2016-04-23 06:38:00",2.6,2.3,0.4,0.0,23,1019.4,0,1,"",98
"2016-04-23 06:39:00",2.6,2.3,0.4,0.0,25,1019.4,1,2,"",98
"2016-04-23 06:40:00",2.6,2.3,0.4,0.0,25,1019.5,1,2,"",98
"2016-04-23 06:41:00",2.6,2.3,0.4,0.0,25,1019.5,1,2,"",98
"2016-04-23 06:42:00",2.6,2.3,0.4,0.0,25,1019.5,1,2,"",98
"2016-04-23 06:43:00",2.6,2.3,0.4,0.0,25,1019.5,1,2,"",98
"2016-04-23 06:44:00",2.6,2.3,0.4,0.0,25,1019.5,1,1,"",98
"2016-04-23 06:45:00",2.6,2.3,0.4,0.0,25,1019.5,1,2,"",98
"2016-04-23 06:46:00",2.6,2.3,0.4,0.0,23,1019.5,2,3,"",98
"2016-04-23 06:47:00",2.6,2.3,0.4,0.0,23,1019.5,1,2,"",98
"2016-04-23 06:48:00",2.6,2.3,0.4,0.0,23,1019.4,0,1,"",98
"2016-04-23 06:49:00",2.6,2.3,0.4,0.0,23,1019.5,1,1,"",98
"2016-04-23 06:50:00",2.6,2.3,0.4,0.0,25,1019.5,1,2,"",98
"2016-04-23 06:51:00",2.6,2.3,0.4,0.0,25,1019.5,1,1,"",98
"2016-04-23 06:52:00",2.6,2.3,0.4,0.0,23,1019.5,1,2,"",98
"2016-04-23 06:53:00",2.7,2.4,0.4,0.0,23,1019.5,1,2,"",98
"2016-04-23 06:54:00",2.7,2.4,0.4,0.0,25,1019.5,2,3,"",98
"2016-04-23 06:55:00",2.7,2.4,0.4,0.0,28,1019.5,0,1,"",98
"2016-04-23 06:56:00",2.7,2.4,0.4,0.0,30,1019.5,1,2,"",98
"2016-04-23 06:57:00",2.7,2.4,0.4,0.0,33,1019.5,1,1,"",98